This is the latest recevied weather packets stored in our database for station/object KC1DMA. If no packets are shown the sender has not sent any weather packets the latest 10 day(s).
| Time | Temp. | Humidity | Pressure | Rain* | Wind** | Luminosity | Snow |
|---|---|---|---|---|---|---|---|
| 1777233152 | 15° C | 48% | 1021.4 hPa | - | - | 150 W/m² | - |
| 1777232848 | 15° C | 49% | 1021.4 hPa | - | - | 628 W/m² | - |
| 1777232547 | 14.44° C | 48% | 1021.4 hPa | - | - | 637 W/m² | - |
| 1777232245 | 15° C | 51% | 1021.3 hPa | - | - | 654 W/m² | - |
| 1777231940 | 14.44° C | 50% | 1021.4 hPa | - | - | 636 W/m² | - |
| 1777231638 | 13.89° C | 51% | 1021.3 hPa | - | - | 644 W/m² | - |
| 1777231334 | 13.89° C | 51% | 1021.3 hPa | - | - | 660 W/m² | - |
| 1777231030 | 14.44° C | 50% | 1021.4 hPa | - | - | 670 W/m² | - |
| 1777230726 | 13.89° C | 51% | 1021.5 hPa | - | - | 677 W/m² | - |
| 1777230421 | 14.44° C | 52% | 1021.4 hPa | - | - | 690 W/m² | - |
| 1777230118 | 13.89° C | 51% | 1021.6 hPa | - | - | 700 W/m² | - |
| 1777229815 | 14.44° C | 51% | 1021.4 hPa | - | - | 707 W/m² | - |
| 1777229512 | 13.89° C | 54% | 1021.6 hPa | - | - | 719 W/m² | - |
| 1777229208 | 14.44° C | 52% | 1021.8 hPa | - | - | 755 W/m² | - |
| 1777228906 | 13.33° C | 53% | 1021.6 hPa | - | - | 759 W/m² | - |
| 1777228601 | 13.89° C | 57% | 1021.9 hPa | - | - | 763 W/m² | - |
| 1777228298 | 13.89° C | 55% | 1021.8 hPa | - | - | 763 W/m² | - |
| 1777227992 | 13.33° C | 57% | 1021.9 hPa | - | - | 768 W/m² | - |
| 1777227688 | 13.33° C | 55% | 1022 hPa | - | - | 776 W/m² | - |
| 1777227383 | 12.78° C | 59% | 1021.8 hPa | - | - | 790 W/m² | - |
| 1777227080 | 13.33° C | 60% | 1021.9 hPa | - | - | 790 W/m² | - |
| 1777226775 | 12.78° C | 58% | 1021.8 hPa | - | - | 858 W/m² | - |
| 1777226470 | 11.67° C | 60% | 1021.8 hPa | - | - | 820 W/m² | - |
| 1777226166 | 11.67° C | 59% | 1022 hPa | - | - | 816 W/m² | - |
| 1777225862 | 11.11° C | 63% | 1021.6 hPa | - | - | 866 W/m² | - |
* Rain since midnight (hover to see other rain measurements)
** Current wind speed in m/s (hover to see current wind gust speed)